SCP
3 3 3 3 2 2 2 1 1 1 1 1 1 1 1 1 1 1 1 1 1 1 1 1 1 1 1 1 1 1 1 1 1 1 1 1 1 1 1 1 1 1 1
3 3 3 2 2 2 2 1 1 1 1 1 1 1 1 1 1 1 1 1 1 1 1 1 1 1 1 1 1 1 1 1 1 1 1 1 1 1 1 1 1 1 1
3 2 2 2 2 2 2 1 1 2 1 1 1 1 1 1 1 1 1 1 1 1 1 1 1 1 1 1 1 1 2 2 2 2 1 1 1 1 1 1 1 1 1
2 2 3 3 2 2 2 1 2 2 2 1 1 2 2 2 1 1 1 1 1 1 1 1 1 1 1 1 1 1 1 2 2 2 2 2 1 1 1 1 1 1 1
2 2 3 3 3 2 2 1 1 2 2 1 1 1 2 2 2 2 2 1 1 1 1 1 1 1 1 1 1 1 1 1 2 2 2 2 1 1 1 1 1 1 1
2 2 2 2 3 2 1 1 1 1 1 1 1 1 1 1 2 2 2 1 1 1 1 1 1 1 1 1 1 1 1 1 1 1 1 1 1 1 1 1 1 1 1
3 2 2 2 2 2 1 1 1 1 1 1 1 1 1 1 1 1 1 1 1 1 1 1 1 1 1 1 1 1 1 1 1 1 1 1 1 1 1 1 1 1 1
3 2 2 2 2 2 2 2 2 2 1 1 1 2 2 2 1 1 1 1 1 1 1 1 2 1 1 1 1 1 1 1 1 1 1 1 1 1 1 1 1 1 1
3 2 2 2 2 2 2 2 2 2 2 2 2 2 2 2 1 1 1 1 1 1 1 2 2 1 1 1 1 1 1 1 1 1 1 1 1 1 1 1 1 1 1
2 2 1 1 1 2 2 1 2 2 2 2 2 2 2 2 1 1 1 1 1 1 1 1 1 1 1 1 1 1 1 1 1 1 1 2 1 1 1 1 1 1 1
2 2 1 1 1 1 1 1 2 2 2 2 2 2 2 2 1 1 1 1 1 1 1 1 1 1 1 1 1 1 0 0 1 1 1 2 2 1 1 1 1 1 1
2 2 1 1 1 1 1 1 2 2 2 2 2 2 2 2 1 1 1 1 0 1 1 1 1 1 1 1 1 1 0 0 0 1 1 1 1 1 1 1 1 1 1
3 2 2 2 1 1 1 1 2 2 2 2 2 2 2 2 2 2 1 1 1 1 1 1 1 1 1 1 1 1 0 0 0 0 0 1 1 1 1 1 1 1 1
2 2 2 2 1 1 1 1 1 2 2 2 1 1 2 2 3 3 2 1 1 2 1 1 1 1 1 1 1 1 0 0 0 0 0 0 1 1 1 1 1 1 1
1 2 2 2 1 1 1 1 1 1 1 1 0 1 1 2 4 4 3 2 2 2 1 1 2 1 1 1 1 1 1 0 0 0 0 0 0 0 1 1 1 0 0
1 1 1 1 1 1 0 0 0 0 0 0 0 0 1 2 4 5 4 3 4 2 1 1 2 1 1 1 1 2 1 1 0 0 0 0 0 0 0 0 0 0 0
1 1 1 1 0 0 0 0 0 0 0 0 0 0 1 2 4 5 5 4 4 3 1 1 2 2 1 1 2 2 2 1 0 0 0 0 0 0 0 0 0 0 0
1 1 1 0 0 0 0 0 0 0 0 0 0 0 0 1 2 4 4 4 3 2 1 1 2 1 1 1 2 2 2 1 1 0 0 0 0 0 0 0 0 0 0
1 1 0 0 0 0 0 0 0 0 0 0 0 0 0 1 2 2 3 2 2 1 1 1 1 1 1 1 1 2 1 1 1 0 0 0 0 0 0 0 0 0 0
1 0 0 0 0 0 0 0 0 0 0 0 0 0 0 0 1 1 1 1 1 1 1 1 1 1 0 1 1 1 1 1 0 0 0 0 0 0 0 0 0 0 0
0 0 0 0 0 0 0 0 0 0 0 0 0 0 0 0 0 0 1 0 0 0 0 0 0 0 0 0 1 1 1 0 0 0 0 0 0 0 0 0 0 0 0
0 0 0 0 0 0 0 0 0 0 0 0 0 0 0 0 0 0 0 0 0 0 0 0 0 0 0 0 1 1 0 0 0 0 0 0 0 0 0 0 0 0 0
0 0 0 0 0 0 0 0 0 0 0 0 0 0 0 0 0 0 0 0 0 0 0 0 0 0 0 0 0 0 0 0 0 0 0 0 0 0 0 0 0 0 0
0 0 0 0 0 0 0 0 0 0 0 0 0 0 0 0 0 0 0 0 0 0 0 0 0 0 0 0 0 0 0 0 0 0 0 0 0 0 0 0 0 0 0
0 0 0 0 0 0 0 0 0 0 0 0 0 0 0 0 0 0 0 0 0 0 0 0 0 0 0 0 0 0 0 0 0 0 0 0 0 0 0 0 0 0 0
0 0 0 0 0 0 0 0 0 0 0 0 0 0 0 0 0 0 0 0 0 0 0 0 0 0 0 0 0 0 0 0 0 0 0 0 0 0 0 0 0 0 0
Wind_Speed
1 1 1 2 3 2 2 3 3 3 4 4 4 5 5 5 5 4 2 2 3 5 5 4 5 7 9 10 11 11 12 12 12 12 11 12 13 12 12 12 12 12 12
1 1 1 1 2 2 3 4 3 3 3 3 4 4 5 5 4 5 5 2 3 3 3 2 3 4 7 8 8 9 10 11 11 11 12 12 12 13 13 13 13 12 12
1 1 1 1 2 2 2 3 4 3 3 3 3 3 3 3 4 4 4 4 2 2 1 1 1 1 2 3 5 7 9 10 10 10 11 11 12 12 12 12 12 11 11
1 2 2 2 2 2 2 2 3 3 3 3 3 3 3 2 3 3 3 3 2 1 3 3 2 2 1 0 1 3 5 7 8 9 9 10 10 10 11 11 11 12 12
2 2 2 2 3 2 2 3 2 3 3 3 3 2 2 2 2 2 2 2 2 2 1 3 3 3 2 2 1 1 3 4 6 7 8 9 9 9 10 10 10 11 11
1 2 1 2 3 2 2 3 3 3 3 3 4 2 2 1 1 1 2 1 1 2 1 2 1 2 4 3 3 3 1 1 2 4 6 7 8 9 9 10 10 9 10
2 2 3 2 3 2 3 4 4 3 2 2 3 2 1 1 0 0 1 1 1 1 2 2 1 1 1 4 4 3 3 2 2 2 2 3 5 7 8 8 8 8 9
2 2 3 2 2 2 2 3 3 4 2 2 3 3 2 2 1 1 0 0 1 1 1 1 2 1 2 1 4 4 3 3 2 2 1 1 1 3 6 8 8 8 8
2 3 3 3 3 3 2 3 3 3 3 3 2 3 3 2 1 0 1 1 1 1 1 2 2 2 2 1 1 3 5 4 3 2 1 1 0 1 3 6 7 7 7
2 2 3 3 3 3 3 4 3 4 4 3 2 2 3 3 2 1 1 1 1 1 1 1 2 2 2 1 2 5 5 5 4 4 3 2 1 1 2 4 5 6 6
2 3 3 3 3 3 3 4 3 4 3 4 3 3 3 2 4 3 2 2 1 1 1 1 1 1 2 2 2 4 4 4 4 4 4 3 2 1 2 3 4 5 5
1 3 3 3 3 3 3 3 3 3 3 4 4 3 3 3 3 2 2 2 2 2 2 1 1 1 1 1 3 5 3 3 4 4 4 3 2 2 0 2 3 3 4
2 3 3 3 3 3 3 3 3 3 3 4 4 4 3 3 3 3 2 2 3 2 2 2 1 1 1 1 2 3 3 2 3 3 3 3 2 2 1 1 1 2 2
2 3 3 3 3 4 4 3 3 2 2 3 4 4 4 3 3 3 2 3 2 2 2 1 1 1 1 1 3 3 1 3 2 2 3 3 3 3 3 2 1 1 2
2 3 3 3 3 3 4 4 3 3 3 3 3 3 3 2 2 2 3 3 3 3 2 1 1 1 1 1 1 2 0 3 2 2 2 2 2 2 2 2 2 1 1
3 3 3 3 3 3 4 4 3 3 3 3 3 3 3 2 1 2 3 3 3 3 2 1 1 1 1 2 0 2 0 3 2 1 1 1 1 1 1 1 1 1 0
2 2 3 3 3 3 3 3 4 3 4 4 3 3 3 3 2 1 2 2 2 2 2 1 1 1 2 3 1 2 1 3 3 4 3 2 1 1 1 1 1 1 1
2 2 3 3 3 3 3 4 4 4 4 4 4 3 2 2 2 2 1 2 1 2 2 2 2 2 2 2 1 2 2 2 1 5 4 3 2 2 1 1 0 1 1
2 2 3 3 4 4 3 3 3 4 4 4 4 4 3 2 2 2 2 1 1 2 2 2 2 1 2 1 2 2 2 1 1 4 6 5 4 4 3 2 2 1 1
2 2 3 3 3 3 3 3 3 4 4 4 4 4 4 3 2 2 1 1 2 2 2 2 2 2 1 2 2 2 2 2 1 2 2 3 4 5 5 4 3 3 2
2 2 3 3 4 3 4 5 4 4 3 3 3 3 3 3 4 3 2 2 2 2 1 1 2 2 1 1 2 2 2 2 2 1 1 2 3 3 5 6 6 4 3
2 2 3 3 4 4 5 5 6 4 4 3 3 3 1 0 1 0 2 4 4 3 2 1 0 1 1 1 1 2 1 1 1 2 1 1 1 1 2 2 5 5 4
2 2 3 3 4 4 3 4 5 5 4 3 3 3 2 2 2 1 1 3 3 3 4 4 2 1 1 1 2 2 1 1 1 0 1 1 1 1 2 3 7 5 5
1 2 2 3 3 3 3 4 6 5 3 2 3 3 3 3 3 4 3 2 1 1 2 3 3 3 2 1 2 2 2 2 3 3 2 2 1 1 1 2 7 7 6
2 2 2 3 3 2 2 4 7 4 2 2 3 3 3 2 3 5 4 3 2 1 2 1 2 2 3 2 3 3 3 3 2 1 2 2 1 1 2 2 5 9 8
2 2 2 2 3 3 2 3 6 4 3 3 2 1 1 2 3 4 5 3 2 1 1 1 2 3 4 4 4 4 3 3 2 1 1 2 2 2 2 2 2 4 6
Wind_Direction
324 326 323 320 308 308 291 292 299 302 288 283 289 292 295 291 291 295 295 187 245 268 272 259 246 240 236 229 225 228 233 235 230 227 227 229 226 225 224 221 219 218 218
336 294 288 303 309 311 318 298 298 291 292 303 292 292 291 298 300 297 292 271 228 252 267 269 258 247 240 225 222 226 229 230 226 222 223 227 229 227 225 222 221 221 217
337 298 304 300 325 319 303 296 299 286 277 281 286 294 286 294 300 296 294 293 261 169 107 37 342 290 257 233 221 226 232 232 227 224 223 224 227 228 226 223 221 219 217
338 306 318 331 318 299 301 299 289 289 292 293 299 303 304 304 304 300 301 302 308 305 116 77 41 28 28 41 223 236 239 235 229 226 225 223 224 223 224 223 222 218 218
344 320 336 349 304 303 309 301 316 304 302 306 296 285 302 312 312 309 330 331 341 316 356 107 91 60 52 64 58 264 255 241 230 225 225 225 220 221 222 220 219 216 213
2 330 331 348 318 320 312 313 306 293 296 304 301 315 297 302 299 334 319 341 338 330 354 24 70 101 89 71 56 42 345 292 249 236 229 225 223 221 221 219 214 212 213
11 352 345 347 319 329 327 320 310 296 293 311 297 289 256 231 171 249 305 324 343 1 5 13 5 352 98 105 78 50 24 360 354 306 260 231 226 220 215 211 209 208 209
5 6 357 331 338 321 322 323 323 313 309 299 302 298 266 213 179 348 317 310 328 340 15 22 34 13 336 358 75 59 27 15 2 345 356 333 246 220 211 208 206 207 210
24 2 349 342 337 317 328 319 315 314 306 291 294 300 296 303 326 215 359 357 354 3 4 18 23 16 355 2 17 58 33 16 10 5 8 12 21 197 196 201 200 205 208
19 7 350 344 333 329 325 309 342 308 297 298 292 285 296 309 282 290 278 1 357 356 13 5 11 17 8 17 56 39 29 20 17 15 10 2 21 160 190 196 197 200 206
25 17 3 351 337 327 333 324 323 313 305 304 304 299 291 269 263 267 279 299 307 348 6 2 354 3 16 9 13 44 38 27 19 13 9 3 0 322 220 198 200 205 208
43 30 6 356 336 335 328 315 303 300 307 306 298 291 288 284 278 280 273 267 293 317 325 322 299 350 6 355 43 51 51 32 24 20 14 5 2 352 288 197 194 202 201
28 19 359 343 335 330 320 315 301 315 312 306 295 292 284 278 276 273 264 261 275 272 267 268 306 333 349 350 52 55 90 59 42 33 26 20 21 16 43 87 167 184 183
15 3 341 338 333 332 330 325 311 321 320 315 310 307 287 277 271 259 243 239 251 265 259 262 287 307 351 351 37 293 107 93 73 53 42 39 39 43 59 58 75 132 174
12 3 346 340 334 334 334 324 339 338 329 318 318 307 290 287 271 264 243 235 247 257 257 233 246 248 302 344 344 292 347 97 95 75 64 55 47 54 59 58 59 70 157
18 359 352 348 345 341 340 334 336 353 330 328 325 327 309 290 272 258 252 249 252 259 265 235 254 242 307 288 282 290 316 140 149 165 153 119 88 65 53 53 53 49 42
19 359 353 353 353 348 345 343 345 344 335 331 325 319 317 306 281 259 257 263 259 259 246 253 272 229 255 265 253 277 260 242 159 166 174 167 159 147 117 62 37 22 25
16 17 1 5 2 3 360 354 348 349 339 332 333 331 328 317 301 295 282 283 289 275 248 238 251 239 242 232 240 261 260 248 167 138 162 178 188 188 187 174 109 330 319
20 15 16 11 2 355 358 359 351 348 346 344 340 340 338 337 325 339 308 281 258 248 243 230 232 236 233 224 231 231 218 241 229 151 169 183 189 195 201 204 209 220 228
20 14 6 5 0 352 355 356 347 346 346 345 342 339 339 342 348 334 314 294 280 254 225 221 206 214 199 200 224 214 204 199 212 181 152 153 167 190 201 202 197 196 202
21 14 5 3 4 3 9 355 338 341 341 344 343 343 357 3 2 340 330 321 292 271 233 211 199 212 183 206 230 231 213 179 170 214 189 178 179 194 183 191 192 190 200
18 8 6 5 3 17 24 353 327 323 327 333 334 338 348 44 54 318 328 328 327 309 303 286 227 200 211 229 260 248 219 194 189 163 231 224 210 210 199 178 141 161 192
13 2 0 3 6 13 4 339 324 306 314 327 328 325 333 22 317 349 219 236 264 300 309 305 311 307 253 242 266 252 230 267 301 104 240 230 209 219 213 134 146 173 200
348 337 342 349 350 3 359 328 313 288 304 313 314 322 331 340 10 339 299 282 268 254 272 273 306 301 313 298 262 255 253 236 228 218 226 263 240 225 222 160 162 188 209
315 308 328 336 336 347 359 328 312 295 311 317 319 328 329 336 18 331 296 292 290 231 176 212 324 320 333 301 281 255 236 233 233 183 180 256 273 275 244 214 172 187 206
303 301 338 328 322 331 6 336 318 303 331 325 322 311 93 324 336 315 286 286 291 326 330 176 204 215 223 208 215 240 257 260 258 242 139 251 263 268 263 231 205 192 207